#timestamp,LO_Frequency,Hit,StdDev 
1546761615.6,286046998.2,N
1546761635.4,286046999.9,N
1546761655.2,286047000.3,N
1546761675.1,286047002.2,N
1546761676.0,286047002.2,N
1546761695.8,286047002.2,N
1546761715.6,286047000.1,N
1546761735.5,286047002.1,N
1546761755.3,286047002.8,N
1546761775.2,286047001.9,N
1546761795.9,286047003.8,Y
1546761815.7,286047001.9,P
1546761835.6,286047002.7,P
1546761855.4,286047002.7,P
1546761875.3,286046998.6,N
1546761895.1,286046999.9,N
1546761915.8,286047000.0,N
1546761935.7,286047001.1,N
1546761955.5,286047000.0,N
1546761975.4,286047000.6,N
1546761995.2,286047001.2,N
1546762015.0,286047000.4,N
1546762015.9,286047000.4,N
1546762035.8,286047000.8,N
1546762055.6,286047001.0,N
1546762075.4,286046998.3,N
1546762095.3,286047001.0,N
1546762115.1,286046999.9,N
1546762135.9,286047000.1,N
1546762155.7,286047000.5,N
1546762175.5,286047000.7,N
1546762195.4,286047000.9,N
1546762215.2,286047000.6,N
1546762235.0,286047000.1,N
1546762235.9,286047000.1,N
1546762255.8,286047002.6,N
1546762275.6,286047002.7,N
1546762295.5,286046999.8,N
1546762315.3,286047000.1,N
1546762335.1,286046999.9,N
1546762355.9,286047002.7,N
1546762375.7,286047002.2,N
1546762395.5,286047002.7,N
1546762415.4,286046999.8,N
1546762435.2,286046998.1,N
1546762455.1,286046998.1,N
1546762456.0,286046998.1,N
1546762475.8,286046999.1,N
1546762495.6,286046999.3,N
1546762515.5,286046998.8,N
1546762535.3,286047000.7,N
1546762555.2,286047000.9,N
1546762575.9,286047000.2,N
1546762595.7,286047000.2,N
1546762615.6,286047000.3,N
1546762635.4,286047002.8,N
1546762655.2,286047000.3,N
1546762675.1,286047001.1,N
1546762676.0,286047001.1,N
1546762695.8,286046999.3,N
1546762715.7,286046998.1,N
1546762735.5,286046998.6,N
1546762755.3,286046998.3,N
1546762775.2,286047000.5,N
1546762795.0,286047001.1,N
1546762795.9,286047001.1,N
1546762815.8,286046999.6,N
1546762835.6,286046999.4,N
1546762855.4,286046998.6,N
1546762875.3,286046998.4,N
1546762895.1,286046998.4,N
1546762915.9,286047001.2,N
1546762935.7,286047002.7,N
1546762955.5,286047002.4,N
1546762975.4,286047001.3,N
1546762995.2,286047001.3,N
1546763015.0,286047000.2,N
1546763016.0,286047000.2,N
1546763035.8,286047000.0,N
1546763055.6,286046999.8,N
1546763075.5,286047000.9,N
1546763095.3,286046998.5,N
1546763115.1,286047001.0,N
1546763135.9,286046998.4,N
1546763155.7,286047000.5,N
1546763175.6,286047000.9,N
1546763195.4,286046999.7,N
1546763215.2,286047002.3,N
1546763235.1,286047002.0,N
1546763236.0,286047002.0,N
1546763255.8,286047003.6,N
1546763275.7,286047001.8,N
1546763295.5,286047001.5,N
1546763315.3,286047003.6,N
1546763335.2,286047003.1,N
1546763355.0,286047003.9,N
1546763355.9,286047003.9,N
1546763375.8,286047004.4,N
1546763395.6,286047002.2,N
1546763415.4,286047001.9,N
1546763435.3,286047002.1,N
1546763455.1,286047001.8,N
1546763475.8,286047002.3,N
1546763495.7,286047002.8,N
1546763515.5,286047000.0,N
1546763535.4,286047000.7,N
1546763555.2,286047001.0,N
1546763575.0,286046999.7,N
1546763575.9,286046999.7,N
1546763595.8,286047001.9,N
1546763615.6,286047002.0,N
1546763635.4,286047001.3,N
1546763655.3,286047003.5,N
1546763675.1,286047004.0,N
1546763695.9,286047003.4,N
1546763715.7,286047005.8,Y
1546763735.5,286047003.9,P
1546763755.4,286047002.2,N
1546763775.2,286047002.7,P
1546763795.1,286047000.8,N
1546763796.0,286047000.8,N
1546763815.8,286046998.7,N
1546763835.6,286046998.8,N
1546763855.5,286046996.9,N
1546763875.3,286046996.6,N
1546763895.1,286046999.5,N
1546763915.9,286047001.1,N
1546763935.7,286047001.2,N
1546763955.6,286046998.6,N
1546763975.4,286047000.9,N
1546763995.2,286046999.3,N
1546764015.1,286046999.1,N
1546764016.0,286046999.1,N
1546764035.8,286046998.2,N
1546764055.6,286046998.5,N
1546764075.5,286047000.8,N
1546764095.3,286046998.7,N
1546764115.2,286046998.4,N
1546764135.9,286046998.6,N
1546764155.7,286046998.2,N
1546764175.6,286047000.8,N
1546764195.4,286047000.0,N
1546764215.2,286047002.6,N
1546764235.1,286047002.7,N
1546764236.0,286047002.7,N
1546764255.8,286047004.3,N
1546764275.7,286047001.6,N
1546764295.5,286046999.8,N
1546764315.3,286047000.3,N
1546764335.2,286047000.0,N
1546764355.0,286047002.5,N
1546764355.9,286047002.5,N
1546764375.7,286046999.9,N
1546764395.6,286047002.2,N
1546764415.4,286047002.2,N
1546764435.3,286047002.1,N
1546764455.1,286046998.1,N
1546764456.0,286046998.1,N
1546764475.8,286047000.8,N
1546764495.7,286046998.2,N
1546764515.5,286046999.3,N
1546764535.3,286046998.8,N
1546764555.2,286046998.8,N
1546764575.0,286046999.0,N
1546764575.9,286046999.0,N
1546764595.8,286046998.1,N
1546764615.6,286047001.2,N
1546764635.4,286046998.3,N
1546764655.3,286046998.6,N
1546764675.1,286047000.4,N
1546764695.9,286046998.6,N
1546764715.7,286046998.1,N
1546764735.5,286047001.0,N
1546764755.4,286047000.9,N
1546764775.2,286047000.6,N
1546764795.0,286047001.2,N
1546764795.9,286047001.2,N
1546764815.8,286047000.5,N
1546764835.6,286047000.4,N
1546764855.5,286046998.1,N
1546764875.3,286046999.4,N
1546764895.1,286046997.0,N
1546764915.9,286046998.3,N
1546764935.7,286046998.1,N
1546764955.5,286046998.7,N
1546764975.4,286046999.4,N
1546764995.2,286046999.1,N
1546765015.1,286047000.8,N
1546765016.0,286047000.8,N
1546765035.8,286046998.1,N
1546765055.6,286047000.9,N
1546765075.5,286047000.9,N
1546765095.3,286047002.7,N
1546765115.1,286047002.0,N
1546765135.9,286047002.3,N
1546765155.7,286047002.6,N
1546765175.6,286047002.2,N
1546765195.4,286047001.4,N
